Time,TemperatureF,DewpointF,PressureIn,WindDirection,WindDirectionDegrees,WindSpeedMPH,WindSpeedGustMPH,Humidity,HourlyPrecipIn,Conditions,Clouds,dailyrainin,SoftwareType,DateUTC
2013-09-14 00:01:00,54.5,49.8,29.90,NW,309,0.0,0.0,84,0.00,,SCT065,0.00,VWS V14.01,2013-09-14 04:01:00,
2013-09-14 00:02:00,54.4,49.7,29.90,NW,311,0.0,0.0,84,0.00,,SCT065,0.00,VWS V14.01,2013-09-14 04:02:00,
2013-09-14 00:05:00,54.3,49.6,29.90,NW,307,0.0,0.0,84,0.00,,FEW060,0.00,VWS V14.01,2013-09-14 04:05:00,
2013-09-14 00:10:00,54.0,49.6,29.90,NW,310,0.0,0.0,85,0.00,,FEW060,0.00,VWS V14.01,2013-09-14 04:10:00,
2013-09-14 00:15:00,53.8,49.4,29.90,WNW,288,0.0,1.0,85,0.00,,FEW060,0.00,VWS V14.01,2013-09-14 04:15:00,
2013-09-14 00:20:00,53.6,49.2,29.90,WNW,301,0.0,3.0,85,0.00,,FEW060,0.00,VWS V14.01,2013-09-14 04:20:00,
2013-09-14 00:25:00,53.6,48.9,29.91,NW,309,0.0,6.0,84,0.00,,FEW060,0.00,VWS V14.01,2013-09-14 04:25:00,
2013-09-14 00:30:00,53.6,48.9,29.91,WNW,285,0.0,2.0,84,0.00,,FEW060,0.00,VWS V14.01,2013-09-14 04:30:00,
2013-09-14 00:36:00,53.6,48.9,29.91,North,352,2.0,4.0,84,0.00,,FEW060,0.00,VWS V14.01,2013-09-14 04:36:00,
2013-09-14 00:41:00,53.5,48.8,29.91,NW,323,0.0,2.0,84,0.00,,FEW060,0.00,VWS V14.01,2013-09-14 04:41:00,
2013-09-14 00:46:00,53.4,48.4,29.91,West,281,0.0,0.0,83,0.00,,FEW060,0.00,VWS V14.01,2013-09-14 04:46:00,
2013-09-14 00:51:00,53.4,48.0,29.91,ENE,63,3.0,5.0,82,0.00,,FEW060,0.00,VWS V14.01,2013-09-14 04:51:00,
2013-09-14 00:56:00,53.5,48.2,29.91,North,359,0.0,0.0,82,0.00,,FEW060,0.00,VWS V14.01,2013-09-14 04:56:00,
2013-09-14 01:01:00,53.4,48.0,29.91,NNW,340,0.0,3.0,82,0.00,,FEW060,0.00,VWS V14.01,2013-09-14 05:01:00,
2013-09-14 01:06:00,53.4,48.0,29.91,NNE,21,0.0,0.0,82,0.00,,OVC060,0.00,VWS V14.01,2013-09-14 05:06:00,
2013-09-14 01:11:00,53.4,48.0,29.91,North,1,0.0,0.0,82,0.00,,OVC060,0.00,VWS V14.01,2013-09-14 05:11:00,
2013-09-14 01:16:00,53.4,48.0,29.91,NNW,347,0.0,0.0,82,0.00,,OVC060,0.00,VWS V14.01,2013-09-14 05:16:00,
2013-09-14 01:21:00,53.4,48.0,29.91,WNW,300,0.0,1.0,82,0.00,,OVC060,0.00,VWS V14.01,2013-09-14 05:21:00,
2013-09-14 01:26:00,53.5,48.2,29.92,WNW,302,0.0,0.0,82,0.00,,OVC060,0.00,VWS V14.01,2013-09-14 05:26:00,
2013-09-14 01:31:00,53.5,48.2,29.91,WNW,301,0.0,0.0,82,0.00,,OVC060,0.00,VWS V14.01,2013-09-14 05:31:00,
2013-09-14 01:37:00,53.5,48.2,29.91,NNE,19,0.0,3.0,82,0.00,,OVC060,0.00,VWS V14.01,2013-09-14 05:37:00,
2013-09-14 01:42:00,53.5,48.2,29.91,North,353,2.0,3.0,82,0.00,,OVC060,0.00,VWS V14.01,2013-09-14 05:42:00,
2013-09-14 01:47:00,53.4,48.0,29.92,NNW,344,0.0,4.0,82,0.00,,OVC060,0.00,VWS V14.01,2013-09-14 05:47:00,
2013-09-14 01:52:00,53.4,48.0,29.92,ESE,119,0.0,0.0,82,0.00,,OVC060,0.00,VWS V14.01,2013-09-14 05:52:00,
2013-09-14 01:57:00,53.4,48.0,29.92,NNW,333,0.0,0.0,82,0.00,,OVC060,0.00,VWS V14.01,2013-09-14 05:57:00,
2013-09-14 02:02:00,53.3,48.0,29.92,WNW,302,0.0,0.0,82,0.00,,OVC060,0.00,VWS V14.01,2013-09-14 06:02:00,
2013-09-14 02:07:00,53.2,48.2,29.92,WNW,302,0.0,0.0,83,0.00,,OVC060,0.00,VWS V14.01,2013-09-14 06:07:00,
2013-09-14 02:12:00,53.1,48.1,29.92,NW,309,0.0,0.0,83,0.00,,OVC060,0.00,VWS V14.01,2013-09-14 06:12:00,
2013-09-14 02:18:00,52.9,47.9,29.92,NW,323,0.0,0.0,83,0.00,,OVC060,0.00,VWS V14.01,2013-09-14 06:18:00,
2013-09-14 02:23:00,52.7,48.0,29.92,NW,319,0.0,0.0,84,0.00,,OVC060,0.00,VWS V14.01,2013-09-14 06:23:00,
2013-09-14 02:28:00,52.5,48.1,29.91,NW,319,0.0,0.0,85,0.00,,OVC060,0.00,VWS V14.01,2013-09-14 06:28:00,
2013-09-14 02:33:00,52.1,47.7,29.92,NW,319,0.0,0.0,85,0.00,,OVC060,0.00,VWS V14.01,2013-09-14 06:33:00,
2013-09-14 02:38:00,51.7,47.7,29.92,NW,319,0.0,0.0,86,0.00,,OVC060,0.00,VWS V14.01,2013-09-14 06:38:00,
2013-09-14 02:43:00,51.4,47.7,29.92,NW,319,0.0,0.0,87,0.00,,OVC060,0.00,VWS V14.01,2013-09-14 06:43:00,
2013-09-14 02:48:00,51.2,47.8,29.92,WNW,288,0.0,0.0,88,0.00,,OVC060,0.00,VWS V14.01,2013-09-14 06:48:00,
2013-09-14 02:53:00,50.8,47.4,29.92,WNW,288,0.0,0.0,88,0.00,,OVC060,0.00,VWS V14.01,2013-09-14 06:53:00,
2013-09-14 02:58:00,50.8,47.7,29.92,WNW,288,0.0,0.0,89,0.00,,OVC060,0.00,VWS V14.01,2013-09-14 06:58:00,
2013-09-14 03:03:00,50.6,47.5,29.92,WNW,288,0.0,0.0,89,0.00,,OVC060,0.00,VWS V14.01,2013-09-14 07:03:00,
2013-09-14 03:08:00,50.4,47.3,29.92,WNW,288,0.0,0.0,89,0.00,,OVC055,0.00,VWS V14.01,2013-09-14 07:08:00,
2013-09-14 03:13:00,50.1,47.3,29.92,SSE,148,0.0,0.0,90,0.00,,OVC055,0.00,VWS V14.01,2013-09-14 07:13:00,
2013-09-14 03:18:00,49.4,47.2,29.92,ESE,121,0.0,0.0,92,0.00,,OVC055,0.00,VWS V14.01,2013-09-14 07:18:00,
2013-09-14 03:23:00,49.1,47.2,29.92,ESE,121,0.0,0.0,93,0.00,,OVC055,0.00,VWS V14.01,2013-09-14 07:23:00,
2013-09-14 03:29:00,49.0,47.3,29.92,ESE,121,0.0,0.0,94,0.00,,OVC055,0.00,VWS V14.01,2013-09-14 07:29:00,
2013-09-14 03:34:00,48.8,46.9,29.92,ESE,121,0.0,0.0,93,0.00,,OVC055,0.00,VWS V14.01,2013-09-14 07:34:00,
2013-09-14 03:39:00,48.9,47.2,29.92,ESE,121,0.0,0.0,94,0.00,,OVC055,0.00,VWS V14.01,2013-09-14 07:39:00,
2013-09-14 03:44:00,49.0,47.1,29.93,ESE,121,0.0,0.0,93,0.00,,OVC055,0.00,VWS V14.01,2013-09-14 07:44:00,
2013-09-14 03:49:00,48.8,46.9,29.93,ESE,121,0.0,0.0,93,0.00,,OVC055,0.00,VWS V14.01,2013-09-14 07:49:00,
2013-09-14 03:54:00,48.5,46.6,29.92,ESE,121,0.0,0.0,93,0.00,,OVC055,0.00,VWS V14.01,2013-09-14 07:54:00,
2013-09-14 03:59:00,48.3,46.7,29.93,ESE,121,0.0,0.0,94,0.00,,OVC055,0.00,VWS V14.01,2013-09-14 07:59:00,
2013-09-14 04:04:00,48.3,46.9,29.93,ESE,121,0.0,0.0,95,0.00,,FEW055,0.00,VWS V14.01,2013-09-14 08:04:00,
2013-09-14 04:09:00,48.3,46.9,29.93,ESE,121,0.0,0.0,95,0.00,,FEW055,0.00,VWS V14.01,2013-09-14 08:09:00,
2013-09-14 04:14:00,48.4,47.0,29.93,ESE,121,0.0,0.0,95,0.00,,FEW055,0.00,VWS V14.01,2013-09-14 08:14:00,
2013-09-14 04:19:00,48.5,47.4,29.93,ESE,121,0.0,0.0,96,0.00,,FEW055,0.00,VWS V14.01,2013-09-14 08:19:00,
2013-09-14 04:24:00,48.5,47.4,29.93,ESE,121,0.0,0.0,96,0.00,,FEW055,0.00,VWS V14.01,2013-09-14 08:24:00,
2013-09-14 04:29:00,48.5,47.4,29.93,ESE,121,0.0,0.0,96,0.00,,FEW055,0.00,VWS V14.01,2013-09-14 08:29:00,
2013-09-14 04:35:00,48.6,47.5,29.93,ESE,121,0.0,0.0,96,0.00,,FEW055,0.00,VWS V14.01,2013-09-14 08:35:00,
2013-09-14 04:40:00,48.6,47.5,29.93,ESE,121,0.0,0.0,96,0.00,,FEW055,0.00,VWS V14.01,2013-09-14 08:40:00,
2013-09-14 04:45:00,48.6,47.5,29.93,ESE,121,0.0,0.0,96,0.00,,FEW055,0.00,VWS V14.01,2013-09-14 08:45:00,
2013-09-14 04:50:00,48.7,47.6,29.93,SE,129,0.0,0.0,96,0.00,,FEW055,0.00,VWS V14.01,2013-09-14 08:50:00,
2013-09-14 04:55:00,49.0,47.9,29.93,SE,129,0.0,0.0,96,0.00,,FEW055,0.00,VWS V14.01,2013-09-14 08:55:00,
2013-09-14 05:00:00,49.0,47.9,29.93,SE,129,0.0,0.0,96,0.00,,FEW055,0.00,VWS V14.01,2013-09-14 09:00:00,
2013-09-14 05:05:00,49.1,48.0,29.94,NW,309,0.0,1.0,96,0.00,,CLR,0.00,VWS V14.01,2013-09-14 09:05:00,
2013-09-14 05:10:00,49.7,48.3,29.94,NW,308,0.0,0.0,95,0.00,,CLR,0.00,VWS V14.01,2013-09-14 09:10:00,
2013-09-14 05:15:00,50.6,47.8,29.94,NW,326,2.0,2.0,90,0.00,,CLR,0.00,VWS V14.01,2013-09-14 09:15:00,
2013-09-14 05:20:00,51.3,47.9,29.94,WNW,295,0.0,5.0,88,0.00,,CLR,0.00,VWS V14.01,2013-09-14 09:20:00,
2013-09-14 05:25:00,51.9,47.5,29.94,NNW,337,3.0,5.0,85,0.00,,CLR,0.00,VWS V14.01,2013-09-14 09:25:00,
2013-09-14 05:30:00,52.3,47.3,29.94,NNW,335,0.0,6.0,83,0.00,,CLR,0.00,VWS V14.01,2013-09-14 09:30:00,
2013-09-14 05:35:00,52.5,47.5,29.94,WNW,293,0.0,3.0,83,0.00,,CLR,0.00,VWS V14.01,2013-09-14 09:35:00,
2013-09-14 05:40:00,52.4,47.4,29.94,WNW,295,0.0,0.0,83,0.00,,CLR,0.00,VWS V14.01,2013-09-14 09:40:00,
2013-09-14 05:45:00,52.3,47.6,29.95,WNW,298,0.0,0.0,84,0.00,,CLR,0.00,VWS V14.01,2013-09-14 09:45:00,
2013-09-14 05:50:00,52.2,47.5,29.95,NW,308,0.0,0.0,84,0.00,,CLR,0.00,VWS V14.01,2013-09-14 09:50:00,
2013-09-14 05:55:00,52.1,47.7,29.95,WNW,285,0.0,0.0,85,0.00,,CLR,0.00,VWS V14.01,2013-09-14 09:55:00,
2013-09-14 06:00:00,52.0,47.6,29.95,West,270,0.0,0.0,85,0.00,,CLR,0.00,VWS V14.01,2013-09-14 10:00:00,
2013-09-14 06:05:00,51.8,47.4,29.95,West,281,0.0,0.0,85,0.00,,BKN035,0.00,VWS V14.01,2013-09-14 10:05:00,
2013-09-14 06:10:00,51.7,47.3,29.95,NNW,332,0.0,0.0,85,0.00,,BKN035,0.00,VWS V14.01,2013-09-14 10:10:00,
2013-09-14 06:15:00,51.7,47.3,29.95,NW,309,0.0,0.0,85,0.00,,BKN035,0.00,VWS V14.01,2013-09-14 10:15:00,
2013-09-14 06:20:00,51.6,47.2,29.96,WNW,295,0.0,0.0,85,0.00,,BKN035,0.00,VWS V14.01,2013-09-14 10:20:00,
2013-09-14 06:25:00,51.4,47.4,29.96,NW,305,0.0,0.0,86,0.00,,BKN035,0.00,VWS V14.01,2013-09-14 10:25:00,
2013-09-14 06:30:00,51.2,47.2,29.96,WNW,293,0.0,0.0,86,0.00,,BKN035,0.00,VWS V14.01,2013-09-14 10:30:00,
2013-09-14 06:36:00,51.0,47.0,29.96,WNW,285,0.0,0.0,86,0.00,,BKN035,0.00,VWS V14.01,2013-09-14 10:36:00,
2013-09-14 06:41:00,50.9,47.2,29.97,WNW,300,0.0,0.0,87,0.00,,BKN035,0.00,VWS V14.01,2013-09-14 10:41:00,
2013-09-14 06:46:00,50.8,47.1,29.97,WNW,287,0.0,2.0,87,0.00,,BKN035,0.00,VWS V14.01,2013-09-14 10:46:00,
2013-09-14 06:51:00,50.6,46.9,29.97,WNW,301,0.0,0.0,87,0.00,,BKN035,0.00,VWS V14.01,2013-09-14 10:51:00,
2013-09-14 06:56:00,50.4,46.7,29.97,NW,310,0.0,1.0,87,0.00,,BKN035,0.00,VWS V14.01,2013-09-14 10:56:00,
2013-09-14 07:01:00,50.4,46.7,29.98,North,349,0.0,2.0,87,0.00,,BKN035,0.00,VWS V14.01,2013-09-14 11:01:00,
2013-09-14 07:06:00,50.6,46.9,29.98,NNW,342,0.0,0.0,87,0.00,,CLR,0.00,VWS V14.01,2013-09-14 11:06:00,
2013-09-14 07:11:00,50.9,47.2,29.98,West,281,0.0,0.0,87,0.00,,CLR,0.00,VWS V14.01,2013-09-14 11:11:00,
2013-09-14 07:16:00,51.1,47.1,29.99,WNW,300,0.0,0.0,86,0.00,,CLR,0.00,VWS V14.01,2013-09-14 11:16:00,
2013-09-14 07:21:00,51.4,47.4,29.99,WNW,296,0.0,0.0,86,0.00,,CLR,0.00,VWS V14.01,2013-09-14 11:21:00,
2013-09-14 07:26:00,51.4,47.4,29.99,NW,325,0.0,0.0,86,0.00,,CLR,0.00,VWS V14.01,2013-09-14 11:26:00,
2013-09-14 07:31:00,51.5,47.5,29.99,WNW,291,0.0,1.0,86,0.00,,CLR,0.00,VWS V14.01,2013-09-14 11:31:00,
2013-09-14 07:36:00,51.6,47.6,29.99,WNW,288,0.0,1.0,86,0.00,,CLR,0.00,VWS V14.01,2013-09-14 11:36:00,
2013-09-14 07:42:00,51.6,47.6,29.99,West,280,0.0,0.0,86,0.00,,CLR,0.00,VWS V14.01,2013-09-14 11:42:00,
2013-09-14 07:47:00,52.0,48.0,29.99,NW,316,0.0,0.0,86,0.00,,CLR,0.00,VWS V14.01,2013-09-14 11:47:00,
2013-09-14 07:52:00,52.6,48.2,29.99,NW,305,0.0,1.0,85,0.00,,CLR,0.00,VWS V14.01,2013-09-14 11:52:00,
2013-09-14 07:57:00,52.8,48.4,30.00,NW,310,0.0,0.0,85,0.00,,CLR,0.00,VWS V14.01,2013-09-14 11:57:00,
2013-09-14 08:02:00,52.8,48.1,30.00,NW,314,0.0,5.0,84,0.00,,CLR,0.00,VWS V14.01,2013-09-14 12:02:00,
2013-09-14 08:07:00,52.8,48.1,30.00,NNW,338,0.0,4.0,84,0.00,,CLR,0.00,VWS V14.01,2013-09-14 12:07:00,
2013-09-14 08:12:00,52.8,48.1,30.00,WNW,302,0.0,2.0,84,0.00,,CLR,0.00,VWS V14.01,2013-09-14 12:12:00,
2013-09-14 08:17:00,52.9,48.2,30.01,NW,307,0.0,3.0,84,0.00,,CLR,0.00,VWS V14.01,2013-09-14 12:17:00,
2013-09-14 08:22:00,52.9,48.2,30.01,WNW,293,1.0,5.0,84,0.00,,CLR,0.00,VWS V14.01,2013-09-14 12:22:00,
2013-09-14 08:27:00,53.0,48.3,30.01,NW,311,0.0,2.0,84,0.00,,CLR,0.00,VWS V14.01,2013-09-14 12:27:00,
2013-09-14 08:32:00,53.1,48.4,30.01,WNW,302,0.0,0.0,84,0.00,,CLR,0.00,VWS V14.01,2013-09-14 12:32:00,
2013-09-14 08:37:00,53.3,48.6,30.01,West,277,0.0,0.0,84,0.00,,SCT046,0.00,VWS V14.01,2013-09-14 12:37:00,
2013-09-14 08:42:00,53.5,48.8,30.01,WNW,287,0.0,5.0,84,0.00,,SCT046,0.00,VWS V14.01,2013-09-14 12:42:00,
2013-09-14 08:47:00,53.6,48.9,30.01,West,278,4.0,5.0,84,0.00,,SCT046,0.00,VWS V14.01,2013-09-14 12:47:00,
2013-09-14 08:52:00,53.7,48.3,30.01,WNW,301,3.0,8.0,82,0.00,,SCT046,0.00,VWS V14.01,2013-09-14 12:52:00,
2013-09-14 08:57:00,53.8,48.4,30.01,NW,310,0.0,9.0,82,0.00,,SCT046,0.00,VWS V14.01,2013-09-14 12:57:00,
2013-09-14 09:02:00,53.9,48.5,30.01,NW,321,8.0,8.0,82,0.00,,SCT046,0.00,VWS V14.01,2013-09-14 13:02:00,
2013-09-14 09:07:00,54.1,48.7,30.02,NNW,330,0.0,6.0,82,0.00,,BKN028,0.00,VWS V14.01,2013-09-14 13:07:00,
2013-09-14 09:13:00,54.1,49.1,30.02,NW,307,0.0,6.0,83,0.00,,BKN028,0.00,VWS V14.01,2013-09-14 13:13:00,
2013-09-14 09:18:00,54.1,49.1,30.02,WNW,302,3.0,4.0,83,0.00,,BKN028,0.00,VWS V14.01,2013-09-14 13:18:00,
2013-09-14 09:23:00,54.1,49.1,30.02,WNW,297,1.0,4.0,83,0.00,,BKN028,0.00,VWS V14.01,2013-09-14 13:23:00,
2013-09-14 09:28:00,54.3,48.9,30.02,NW,316,3.0,5.0,82,0.00,,BKN028,0.00,VWS V14.01,2013-09-14 13:28:00,
2013-09-14 09:33:00,54.5,48.8,30.03,NW,321,8.0,9.0,81,0.00,,BKN028,0.00,VWS V14.01,2013-09-14 13:33:00,
2013-09-14 09:38:00,54.8,48.8,30.02,North,354,4.0,8.0,80,0.00,,BKN030,0.00,VWS V14.01,2013-09-14 13:38:00,
2013-09-14 09:43:00,54.8,48.8,30.03,NNW,337,0.0,12.0,80,0.00,,BKN030,0.00,VWS V14.01,2013-09-14 13:43:00,
2013-09-14 09:48:00,54.6,48.6,30.03,NNE,26,2.0,6.0,80,0.00,,BKN030,0.00,VWS V14.01,2013-09-14 13:48:00,
2013-09-14 09:53:00,54.5,48.5,30.03,East,83,0.0,8.0,80,0.00,,BKN030,0.00,VWS V14.01,2013-09-14 13:53:00,
2013-09-14 09:58:00,54.7,49.0,30.03,WNW,296,1.0,4.0,81,0.00,,BKN030,0.00,VWS V14.01,2013-09-14 13:58:00,
2013-09-14 10:03:00,54.9,48.2,30.03,WNW,302,3.0,12.0,78,0.00,,BKN030,0.00,VWS V14.01,2013-09-14 14:03:00,
2013-09-14 10:08:00,55.3,48.6,30.03,NNW,335,0.0,9.0,78,0.00,,BKN030,0.00,VWS V14.01,2013-09-14 14:08:00,
2013-09-14 10:13:00,55.5,48.4,30.03,NW,311,7.0,7.0,77,0.00,,BKN030,0.00,VWS V14.01,2013-09-14 14:13:00,
2013-09-14 10:19:00,55.5,48.1,30.03,WNW,296,1.0,8.0,76,0.00,,BKN030,0.00,VWS V14.01,2013-09-14 14:19:00,
2013-09-14 10:24:00,55.8,48.4,30.03,North,5,0.0,7.0,76,0.00,,BKN030,0.00,VWS V14.01,2013-09-14 14:24:00,
2013-09-14 10:29:00,56.2,48.8,30.04,NNW,347,6.0,8.0,76,0.00,,BKN030,0.00,VWS V14.01,2013-09-14 14:29:00,
2013-09-14 10:34:00,56.7,48.5,30.03,NNE,32,0.0,11.0,74,0.00,,BKN030,0.00,VWS V14.01,2013-09-14 14:34:00,
2013-09-14 10:39:00,56.9,48.3,30.03,NNW,345,1.0,10.0,73,0.00,,BKN030,0.00,VWS V14.01,2013-09-14 14:39:00,
2013-09-14 10:44:00,56.7,47.8,30.04,North,5,1.0,11.0,72,0.00,,BKN030,0.00,VWS V14.01,2013-09-14 14:44:00,
2013-09-14 10:49:00,56.6,48.1,30.04,NNE,22,3.0,11.0,73,0.00,,BKN030,0.00,VWS V14.01,2013-09-14 14:49:00,
2013-09-14 10:54:00,56.4,47.9,30.04,WNW,290,5.0,9.0,73,0.00,,BKN030,0.00,VWS V14.01,2013-09-14 14:54:00,
2013-09-14 10:59:00,56.4,47.9,30.04,NNW,343,6.0,11.0,73,0.00,,BKN030,0.00,VWS V14.01,2013-09-14 14:59:00,
2013-09-14 11:04:00,56.9,48.0,30.04,NNW,340,2.0,7.0,72,0.00,,BKN035,0.00,VWS V14.01,2013-09-14 15:04:00,
2013-09-14 11:09:00,57.2,47.9,30.04,NW,325,0.0,13.0,71,0.00,,BKN035,0.00,VWS V14.01,2013-09-14 15:09:00,
2013-09-14 11:14:00,57.5,47.8,30.04,NW,322,6.0,10.0,70,0.00,,BKN035,0.00,VWS V14.01,2013-09-14 15:14:00,
2013-09-14 11:20:00,57.5,48.2,30.04,NNW,335,7.0,10.0,71,0.00,,BKN035,0.00,VWS V14.01,2013-09-14 15:20:00,
2013-09-14 11:25:00,57.4,47.7,30.04,NNE,23,1.0,2.0,70,0.00,,BKN035,0.00,VWS V14.01,2013-09-14 15:25:00,
2013-09-14 11:30:00,57.4,47.3,30.04,WNW,284,0.0,7.0,69,0.00,,BKN035,0.00,VWS V14.01,2013-09-14 15:30:00,
2013-09-14 11:35:00,57.7,47.6,30.04,West,281,2.0,7.0,69,0.00,,BKN035,0.00,VWS V14.01,2013-09-14 15:35:00,
2013-09-14 11:40:00,57.8,47.7,30.04,NW,312,0.0,7.0,69,0.00,,BKN035,0.00,VWS V14.01,2013-09-14 15:40:00,
2013-09-14 11:45:00,57.6,47.9,30.05,WNW,290,3.0,8.0,70,0.00,,BKN035,0.00,VWS V14.01,2013-09-14 15:45:00,
2013-09-14 11:50:00,57.3,47.6,30.04,WNW,287,0.0,9.0,70,0.00,,BKN035,0.00,VWS V14.01,2013-09-14 15:50:00,
2013-09-14 11:55:00,57.2,47.5,30.05,NW,326,4.0,13.0,70,0.00,,BKN035,0.00,VWS V14.01,2013-09-14 15:55:00,
2013-09-14 12:00:00,57.2,47.5,30.05,NW,319,6.0,11.0,70,0.00,,BKN035,0.00,VWS V14.01,2013-09-14 16:00:00,
2013-09-14 12:05:00,57.4,47.7,30.05,NW,316,1.0,7.0,70,0.00,,OVC038,0.00,VWS V14.01,2013-09-14 16:05:00,
2013-09-14 12:10:00,57.6,47.9,30.05,WNW,300,9.0,11.0,70,0.00,,OVC038,0.00,VWS V14.01,2013-09-14 16:10:00,
2013-09-14 12:15:00,57.5,48.6,30.05,NW,309,3.0,14.0,72,0.00,,OVC038,0.00,VWS V14.01,2013-09-14 16:15:00,
2013-09-14 12:20:00,57.3,47.6,30.05,WNW,288,1.0,13.0,70,0.00,,OVC038,0.00,VWS V14.01,2013-09-14 16:20:00,
2013-09-14 12:25:00,57.4,47.3,30.05,NW,323,0.0,11.0,69,0.00,,OVC038,0.00,VWS V14.01,2013-09-14 16:25:00,
2013-09-14 12:30:00,57.5,47.4,30.05,NNW,328,0.0,9.0,69,0.00,,OVC038,0.00,VWS V14.01,2013-09-14 16:30:00,
2013-09-14 12:35:00,57.9,47.4,30.05,North,1,2.0,11.0,68,0.00,,OVC038,0.00,VWS V14.01,2013-09-14 16:35:00,
2013-09-14 12:40:00,58.2,48.1,30.05,NNW,342,0.0,1.0,69,0.00,,OVC038,0.00,VWS V14.01,2013-09-14 16:40:00,
2013-09-14 12:45:00,58.4,47.9,30.05,NW,308,1.0,3.0,68,0.00,,OVC038,0.00,VWS V14.01,2013-09-14 16:45:00,
2013-09-14 12:50:00,58.1,48.0,30.05,WNW,296,0.0,3.0,69,0.00,,OVC038,0.00,VWS V14.01,2013-09-14 16:50:00,
2013-09-14 12:55:00,58.1,48.0,30.05,NW,316,2.0,5.0,69,0.00,,OVC038,0.00,VWS V14.01,2013-09-14 16:55:00,
2013-09-14 13:00:00,58.0,47.5,30.05,NW,317,4.0,4.0,68,0.00,,OVC038,0.00,VWS V14.01,2013-09-14 17:00:00,
2013-09-14 13:05:00,58.1,48.0,30.05,NW,323,6.0,6.0,69,0.00,,OVC038,0.00,VWS V14.01,2013-09-14 17:05:00,
2013-09-14 13:10:00,58.2,47.3,30.05,WNW,302,7.0,9.0,67,0.00,,OVC038,0.00,VWS V14.01,2013-09-14 17:10:00,
2013-09-14 13:15:00,58.3,47.4,30.05,NW,308,1.0,6.0,67,0.00,,OVC038,0.00,VWS V14.01,2013-09-14 17:15:00,
2013-09-14 13:20:00,58.3,47.4,30.05,WNW,295,6.0,11.0,67,0.00,,OVC038,0.00,VWS V14.01,2013-09-14 17:20:00,
2013-09-14 13:25:00,58.1,47.2,30.05,WNW,288,5.0,8.0,67,0.00,,OVC038,0.00,VWS V14.01,2013-09-14 17:25:00,
2013-09-14 13:30:00,58.4,47.5,30.05,NW,311,0.0,5.0,67,0.00,,OVC038,0.00,VWS V14.01,2013-09-14 17:30:00,
2013-09-14 13:36:00,58.8,48.3,30.05,WNW,302,2.0,3.0,68,0.00,,OVC038,0.00,VWS V14.01,2013-09-14 17:36:00,
2013-09-14 13:41:00,58.7,47.4,30.05,West,273,0.0,8.0,66,0.00,,OVC038,0.00,VWS V14.01,2013-09-14 17:41:00,
2013-09-14 13:46:00,59.2,48.3,30.05,NW,304,8.0,10.0,67,0.00,,OVC038,0.00,VWS V14.01,2013-09-14 17:46:00,
2013-09-14 13:51:00,59.1,47.8,30.05,NW,321,4.0,9.0,66,0.00,,OVC038,0.00,VWS V14.01,2013-09-14 17:51:00,
2013-09-14 13:56:00,59.4,47.7,30.05,WNW,301,4.0,6.0,65,0.00,,OVC038,0.00,VWS V14.01,2013-09-14 17:56:00,
2013-09-14 14:01:00,59.2,47.5,30.05,WNW,289,6.0,9.0,65,0.00,,OVC038,0.00,VWS V14.01,2013-09-14 18:01:00,
2013-09-14 14:06:00,59.4,48.0,30.05,NW,310,1.0,13.0,66,0.00,,OVC042,0.00,VWS V14.01,2013-09-14 18:06:00,
2013-09-14 14:11:00,58.8,47.5,30.05,NW,310,0.0,7.0,66,0.00,,OVC042,0.00,VWS V14.01,2013-09-14 18:11:00,
2013-09-14 14:16:00,58.7,47.8,30.05,NNW,333,3.0,10.0,67,0.00,,OVC042,0.00,VWS V14.01,2013-09-14 18:16:00,
2013-09-14 14:21:00,58.7,48.2,30.05,NNW,328,4.0,6.0,68,0.00,,OVC042,0.00,VWS V14.01,2013-09-14 18:21:00,
2013-09-14 14:26:00,59.0,48.5,30.05,North,352,3.0,8.0,68,0.00,,OVC042,0.00,VWS V14.01,2013-09-14 18:26:00,
2013-09-14 14:31:00,59.1,48.2,30.05,WNW,294,1.0,7.0,67,0.00,,OVC042,0.00,VWS V14.01,2013-09-14 18:31:00,
2013-09-14 14:37:00,59.0,48.1,30.05,NW,305,3.0,8.0,67,0.00,,OVC042,0.00,VWS V14.01,2013-09-14 18:37:00,
2013-09-14 14:42:00,58.8,47.9,30.05,WNW,287,5.0,6.0,67,0.00,,OVC042,0.00,VWS V14.01,2013-09-14 18:42:00,
2013-09-14 14:47:00,58.7,48.2,30.05,NNW,336,0.0,4.0,68,0.00,,OVC042,0.00,VWS V14.01,2013-09-14 18:47:00,
2013-09-14 14:52:00,59.1,47.8,30.05,West,271,4.0,7.0,66,0.00,,OVC042,0.00,VWS V14.01,2013-09-14 18:52:00,
2013-09-14 14:57:00,59.1,48.6,30.05,NW,323,0.0,1.0,68,0.00,,OVC042,0.00,VWS V14.01,2013-09-14 18:57:00,
2013-09-14 15:02:00,59.8,49.6,30.05,North,358,0.0,6.0,69,0.00,,OVC042,0.00,VWS V14.01,2013-09-14 19:02:00,
2013-09-14 15:07:00,60.9,49.5,30.04,WNW,282,6.0,6.0,66,0.00,,BKN040,0.00,VWS V14.01,2013-09-14 19:07:00,
2013-09-14 15:12:00,60.1,47.5,30.04,WNW,290,0.0,7.0,63,0.00,,BKN040,0.00,VWS V14.01,2013-09-14 19:12:00,
2013-09-14 15:17:00,60.2,48.4,30.04,WSW,240,2.0,11.0,65,0.00,,BKN040,0.00,VWS V14.01,2013-09-14 19:17:00,
2013-09-14 15:22:00,60.7,48.5,30.04,WNW,295,3.0,4.0,64,0.00,,BKN040,0.00,VWS V14.01,2013-09-14 19:22:00,
2013-09-14 15:28:00,61.0,48.8,30.04,West,280,3.0,6.0,64,0.00,,BKN040,0.00,VWS V14.01,2013-09-14 19:28:00,
2013-09-14 15:33:00,60.8,48.6,30.04,NW,326,1.0,6.0,64,0.00,,BKN040,0.00,VWS V14.01,2013-09-14 19:33:00,
2013-09-14 15:38:00,60.1,47.5,30.04,NNW,328,3.0,8.0,63,0.00,,BKN040,0.00,VWS V14.01,2013-09-14 19:38:00,
2013-09-14 15:43:00,59.5,47.7,30.04,NW,316,5.0,7.0,65,0.00,,BKN040,0.00,VWS V14.01,2013-09-14 19:43:00,
2013-09-14 15:48:00,59.3,48.0,30.05,NNE,27,2.0,7.0,66,0.00,,BKN040,0.00,VWS V14.01,2013-09-14 19:48:00,
2013-09-14 15:53:00,59.5,48.2,30.05,WNW,296,5.0,9.0,66,0.00,,BKN040,0.00,VWS V14.01,2013-09-14 19:53:00,
2013-09-14 15:58:00,60.2,48.8,30.04,NW,319,1.0,6.0,66,0.00,,BKN040,0.00,VWS V14.01,2013-09-14 19:58:00,
2013-09-14 16:03:00,60.1,48.7,30.05,NNW,348,4.0,8.0,66,0.00,,BKN040,0.00,VWS V14.01,2013-09-14 20:03:00,
2013-09-14 16:08:00,59.6,48.2,30.05,NNW,342,5.0,7.0,66,0.00,,FEW040,0.00,VWS V14.01,2013-09-14 20:08:00,
2013-09-14 16:13:00,59.2,47.9,30.05,WNW,301,4.0,11.0,66,0.00,,FEW040,0.00,VWS V14.01,2013-09-14 20:13:00,
2013-09-14 16:18:00,59.9,48.9,30.04,WSW,242,1.0,11.0,67,0.00,,FEW040,0.00,VWS V14.01,2013-09-14 20:18:00,
2013-09-14 16:23:00,60.6,49.6,30.05,NW,316,1.0,8.0,67,0.00,,FEW040,0.00,VWS V14.01,2013-09-14 20:23:00,
2013-09-14 16:29:00,61.1,49.7,30.05,West,281,1.0,9.0,66,0.00,,FEW040,0.00,VWS V14.01,2013-09-14 20:29:00,
2013-09-14 16:34:00,61.0,48.8,30.05,NE,53,2.0,9.0,64,0.00,,FEW040,0.00,VWS V14.01,2013-09-14 20:34:00,
2013-09-14 16:39:00,61.1,48.8,30.05,NW,321,6.0,10.0,64,0.00,,FEW040,0.00,VWS V14.01,2013-09-14 20:39:00,
2013-09-14 16:44:00,60.8,48.6,30.05,NW,305,5.0,11.0,64,0.00,,FEW040,0.00,VWS V14.01,2013-09-14 20:44:00,
2013-09-14 16:49:00,60.8,49.4,30.06,NW,310,3.0,9.0,66,0.00,,FEW040,0.00,VWS V14.01,2013-09-14 20:49:00,
2013-09-14 16:54:00,61.1,48.8,30.06,WNW,290,1.0,9.0,64,0.00,,FEW040,0.00,VWS V14.01,2013-09-14 20:54:00,
2013-09-14 16:59:00,60.7,49.3,30.06,NW,304,3.0,8.0,66,0.00,,FEW040,0.00,VWS V14.01,2013-09-14 20:59:00,
2013-09-14 17:04:00,60.5,48.3,30.06,NW,304,0.0,9.0,64,0.00,,CLR,0.00,VWS V14.01,2013-09-14 21:04:00,
2013-09-14 17:09:00,61.2,48.9,30.06,WNW,302,0.0,3.0,64,0.00,,CLR,0.00,VWS V14.01,2013-09-14 21:09:00,
2013-09-14 17:14:00,60.8,49.0,30.06,WNW,287,1.0,10.0,65,0.00,,CLR,0.00,VWS V14.01,2013-09-14 21:14:00,
2013-09-14 17:20:00,60.5,48.7,30.07,NW,321,3.0,8.0,65,0.00,,CLR,0.00,VWS V14.01,2013-09-14 21:20:00,
2013-09-14 17:25:00,60.4,49.0,30.07,West,281,2.0,8.0,66,0.00,,CLR,0.00,VWS V14.01,2013-09-14 21:25:00,
2013-09-14 17:30:00,60.4,48.2,30.07,WNW,285,2.0,9.0,64,0.00,,CLR,0.00,VWS V14.01,2013-09-14 21:30:00,
2013-09-14 17:35:00,60.3,48.1,30.07,NW,305,1.0,8.0,64,0.00,,CLR,0.00,VWS V14.01,2013-09-14 21:35:00,
2013-09-14 17:40:00,60.5,49.1,30.07,NW,311,0.0,1.0,66,0.00,,CLR,0.00,VWS V14.01,2013-09-14 21:40:00,
2013-09-14 17:45:00,60.5,48.3,30.07,NW,314,2.0,5.0,64,0.00,,CLR,0.00,VWS V14.01,2013-09-14 21:45:00,
2013-09-14 17:50:00,60.5,48.7,30.07,West,274,1.0,4.0,65,0.00,,CLR,0.00,VWS V14.01,2013-09-14 21:50:00,
2013-09-14 17:55:00,60.3,48.9,30.08,East,101,0.0,5.0,66,0.00,,CLR,0.00,VWS V14.01,2013-09-14 21:55:00,
2013-09-14 18:00:00,60.1,48.3,30.08,NNW,333,0.0,5.0,65,0.00,,CLR,0.00,VWS V14.01,2013-09-14 22:00:00,
2013-09-14 18:05:00,60.2,48.8,30.08,WNW,284,0.0,3.0,66,0.00,,CLR,0.00,VWS V14.01,2013-09-14 22:05:00,
2013-09-14 18:10:00,60.1,48.7,30.08,NW,326,0.0,4.0,66,0.00,,CLR,0.00,VWS V14.01,2013-09-14 22:10:00,
2013-09-14 18:15:00,60.0,48.6,30.08,WNW,284,0.0,3.0,66,0.00,,CLR,0.00,VWS V14.01,2013-09-14 22:15:00,
2013-09-14 18:20:00,60.0,48.6,30.08,NW,316,2.0,2.0,66,0.00,,CLR,0.00,VWS V14.01,2013-09-14 22:20:00,
2013-09-14 18:25:00,59.5,48.2,30.08,NW,315,0.0,6.0,66,0.00,,CLR,0.00,VWS V14.01,2013-09-14 22:25:00,
2013-09-14 18:30:00,59.1,48.6,30.08,NW,321,1.0,2.0,68,0.00,,CLR,0.00,VWS V14.01,2013-09-14 22:30:00,
2013-09-14 18:35:00,58.5,48.4,30.08,NE,44,0.0,3.0,69,0.00,,CLR,0.00,VWS V14.01,2013-09-14 22:35:00,
2013-09-14 18:40:00,57.8,48.1,30.08,ENE,59,0.0,4.0,70,0.00,,CLR,0.00,VWS V14.01,2013-09-14 22:40:00,
2013-09-14 18:45:00,57.3,48.0,30.08,ESE,113,0.0,1.0,71,0.00,,CLR,0.00,VWS V14.01,2013-09-14 22:45:00,
2013-09-14 18:50:00,57.1,48.2,30.09,NNE,27,0.0,5.0,72,0.00,,CLR,0.00,VWS V14.01,2013-09-14 22:50:00,
2013-09-14 18:52:00,56.9,48.0,30.08,East,94,0.0,1.0,72,0.00,,CLR,0.00,VWS V14.01,2013-09-14 22:52:00,
2013-09-14 18:57:00,56.6,48.1,30.09,NNE,33,0.0,2.0,73,0.00,,CLR,0.00,VWS V14.01,2013-09-14 22:57:00,
2013-09-14 19:02:00,56.3,47.8,30.09,East,89,0.0,0.0,73,0.00,,CLR,0.00,VWS V14.01,2013-09-14 23:02:00,
2013-09-14 19:07:00,55.7,47.9,30.09,East,86,0.0,0.0,75,0.00,,CLR,0.00,VWS V14.01,2013-09-14 23:07:00,
2013-09-14 19:12:00,55.0,47.2,30.09,ENE,68,0.0,1.0,75,0.00,,CLR,0.00,VWS V14.01,2013-09-14 23:12:00,
2013-09-14 19:17:00,54.4,47.0,30.09,ENE,75,0.0,1.0,76,0.00,,CLR,0.00,VWS V14.01,2013-09-14 23:17:00,
2013-09-14 19:22:00,53.9,47.2,30.09,East,91,0.0,0.0,78,0.00,,CLR,0.00,VWS V14.01,2013-09-14 23:22:00,
2013-09-14 19:27:00,53.4,47.4,30.09,East,94,0.0,0.0,80,0.00,,CLR,0.00,VWS V14.01,2013-09-14 23:27:00,
2013-09-14 19:32:00,52.8,47.5,30.09,East,97,0.0,0.0,82,0.00,,CLR,0.00,VWS V14.01,2013-09-14 23:32:00,
2013-09-14 19:38:00,52.3,47.3,30.09,East,96,0.0,0.0,83,0.00,,CLR,0.00,VWS V14.01,2013-09-14 23:38:00,
2013-09-14 19:43:00,52.2,46.9,30.09,East,92,0.0,0.0,82,0.00,,CLR,0.00,VWS V14.01,2013-09-14 23:43:00,
2013-09-14 19:48:00,52.1,46.8,30.10,East,86,0.0,1.0,82,0.00,,CLR,0.00,VWS V14.01,2013-09-14 23:48:00,
2013-09-14 19:53:00,52.4,46.8,30.10,East,82,0.0,0.0,81,0.00,,CLR,0.00,VWS V14.01,2013-09-14 23:53:00,
2013-09-14 19:58:00,52.3,47.0,30.10,East,82,0.0,0.0,82,0.00,,CLR,0.00,VWS V14.01,2013-09-14 23:58:00,
2013-09-14 20:03:00,52.0,46.7,30.10,WSW,248,0.0,0.0,82,0.00,,CLR,0.00,VWS V14.01,2013-09-15 00:03:00,
2013-09-14 20:08:00,51.7,46.7,30.10,SSW,204,0.0,0.0,83,0.00,,CLR,0.00,VWS V14.01,2013-09-15 00:08:00,
2013-09-14 20:13:00,51.5,46.5,30.10,ESE,103,0.0,0.0,83,0.00,,CLR,0.00,VWS V14.01,2013-09-15 00:13:00,
2013-09-14 20:18:00,50.3,46.6,30.11,SE,138,0.0,0.0,87,0.00,,CLR,0.00,VWS V14.01,2013-09-15 00:18:00,
2013-09-14 20:23:00,49.5,46.4,30.11,SE,128,0.0,0.0,89,0.00,,CLR,0.00,VWS V14.01,2013-09-15 00:23:00,
2013-09-14 20:28:00,49.2,46.4,30.11,SE,128,0.0,0.0,90,0.00,,CLR,0.00,VWS V14.01,2013-09-15 00:28:00,
2013-09-14 20:33:00,48.9,46.4,30.11,SE,128,0.0,0.0,91,0.00,,CLR,0.00,VWS V14.01,2013-09-15 00:33:00,
2013-09-14 20:39:00,48.9,46.4,30.11,ENE,71,0.0,0.0,91,0.00,,CLR,0.00,VWS V14.01,2013-09-15 00:39:00,
2013-09-14 20:44:00,49.5,46.4,30.11,ENE,70,0.0,1.0,89,0.00,,CLR,0.00,VWS V14.01,2013-09-15 00:44:00,
2013-09-14 20:49:00,50.1,46.7,30.11,East,101,0.0,0.0,88,0.00,,CLR,0.00,VWS V14.01,2013-09-15 00:49:00,
2013-09-14 20:54:00,50.1,46.4,30.11,East,101,0.0,0.0,87,0.00,,CLR,0.00,VWS V14.01,2013-09-15 00:54:00,
2013-09-14 20:59:00,49.3,46.2,30.12,ESE,113,0.0,0.0,89,0.00,,CLR,0.00,VWS V14.01,2013-09-15 00:59:00,
2013-09-14 21:04:00,48.6,45.8,30.12,ESE,113,0.0,0.0,90,0.00,,CLR,0.00,VWS V14.01,2013-09-15 01:04:00,
2013-09-14 21:09:00,48.1,45.6,30.11,ESE,113,0.0,0.0,91,0.00,,CLR,0.00,VWS V14.01,2013-09-15 01:09:00,
2013-09-14 21:14:00,47.7,45.5,30.11,ESE,113,0.0,0.0,92,0.00,,CLR,0.00,VWS V14.01,2013-09-15 01:14:00,
2013-09-14 21:19:00,47.5,45.6,30.11,ESE,113,0.0,0.0,93,0.00,,CLR,0.00,VWS V14.01,2013-09-15 01:19:00,
2013-09-14 21:24:00,47.3,45.7,30.11,ESE,113,0.0,0.0,94,0.00,,CLR,0.00,VWS V14.01,2013-09-15 01:24:00,
2013-09-14 21:30:00,47.0,45.4,30.11,ESE,113,0.0,0.0,94,0.00,,CLR,0.00,VWS V14.01,2013-09-15 01:30:00,
2013-09-14 21:35:00,46.9,45.3,30.12,ESE,113,0.0,0.0,94,0.00,,CLR,0.00,VWS V14.01,2013-09-15 01:35:00,
2013-09-14 21:40:00,46.8,45.5,30.12,ESE,113,0.0,0.0,95,0.00,,CLR,0.00,VWS V14.01,2013-09-15 01:40:00,
2013-09-14 21:45:00,46.6,45.2,30.12,ESE,113,0.0,0.0,95,0.00,,CLR,0.00,VWS V14.01,2013-09-15 01:45:00,
2013-09-14 21:50:00,46.6,45.2,30.12,East,98,0.0,0.0,95,0.00,,CLR,0.00,VWS V14.01,2013-09-15 01:50:00,
2013-09-14 21:55:00,46.4,45.0,30.12,East,97,0.0,0.0,95,0.00,,CLR,0.00,VWS V14.01,2013-09-15 01:55:00,
2013-09-14 22:00:00,46.3,45.0,30.12,East,97,0.0,0.0,95,0.00,,CLR,0.00,VWS V14.01,2013-09-15 02:00:00,
2013-09-14 22:05:00,46.2,44.8,30.12,East,98,0.0,0.0,95,0.00,,CLR,0.00,VWS V14.01,2013-09-15 02:05:00,
2013-09-14 22:10:00,46.1,45.0,30.12,East,98,0.0,0.0,96,0.00,,CLR,0.00,VWS V14.01,2013-09-15 02:10:00,
2013-09-14 22:15:00,46.0,44.9,30.12,East,97,0.0,0.0,96,0.00,,CLR,0.00,VWS V14.01,2013-09-15 02:15:00,
2013-09-14 22:20:00,45.9,44.8,30.12,East,97,0.0,0.0,96,0.00,,CLR,0.00,VWS V14.01,2013-09-15 02:20:00,
2013-09-14 22:25:00,45.7,44.6,30.12,East,98,0.0,0.0,96,0.00,,CLR,0.00,VWS V14.01,2013-09-15 02:25:00,
2013-09-14 22:30:00,45.8,44.7,30.12,East,98,0.0,0.0,96,0.00,,CLR,0.00,VWS V14.01,2013-09-15 02:30:00,
2013-09-14 22:35:00,45.8,44.7,30.13,East,97,0.0,0.0,96,0.00,,CLR,0.00,VWS V14.01,2013-09-15 02:35:00,
2013-09-14 22:40:00,45.7,44.6,30.13,East,98,0.0,0.0,96,0.00,,CLR,0.00,VWS V14.01,2013-09-15 02:40:00,
2013-09-14 22:45:00,45.5,44.4,30.13,East,97,0.0,0.0,96,0.00,,CLR,0.00,VWS V14.01,2013-09-15 02:45:00,
2013-09-14 22:50:00,45.3,44.2,30.13,East,98,0.0,0.0,96,0.00,,CLR,0.00,VWS V14.01,2013-09-15 02:50:00,
2013-09-14 22:55:00,45.3,44.5,30.13,East,98,0.0,0.0,97,0.00,,CLR,0.00,VWS V14.01,2013-09-15 02:55:00,
2013-09-14 23:00:00,45.5,44.7,30.13,East,97,0.0,0.0,97,0.00,,CLR,0.00,VWS V14.01,2013-09-15 03:00:00,
2013-09-14 23:05:00,45.4,44.6,30.14,East,98,0.0,0.0,97,0.00,,CLR,0.00,VWS V14.01,2013-09-15 03:05:00,
2013-09-14 23:10:00,45.7,44.9,30.14,East,98,0.0,0.0,97,0.00,,CLR,0.00,VWS V14.01,2013-09-15 03:10:00,
2013-09-14 23:15:00,45.7,44.9,30.14,East,97,0.0,0.0,97,0.00,,CLR,0.00,VWS V14.01,2013-09-15 03:15:00,
2013-09-14 23:20:00,45.5,44.7,30.14,East,97,0.0,0.0,97,0.00,,CLR,0.00,VWS V14.01,2013-09-15 03:20:00,
2013-09-14 23:25:00,45.1,44.0,30.14,ESE,110,0.0,0.0,96,0.00,,CLR,0.00,VWS V14.01,2013-09-15 03:25:00,
2013-09-14 23:30:00,44.6,43.5,30.14,SE,138,0.0,0.0,96,0.00,,CLR,0.00,VWS V14.01,2013-09-15 03:30:00,
2013-09-14 23:35:00,44.8,44.0,30.14,SE,138,0.0,0.0,97,0.00,,CLR,0.00,VWS V14.01,2013-09-15 03:35:00,
2013-09-14 23:40:00,45.4,44.9,30.14,SE,139,0.0,0.0,98,0.00,,CLR,0.00,VWS V14.01,2013-09-15 03:40:00,
2013-09-14 23:45:00,45.7,45.2,30.14,SE,138,0.0,0.0,98,0.00,,CLR,0.00,VWS V14.01,2013-09-15 03:45:00,
2013-09-14 23:50:00,45.5,44.7,30.14,SE,139,0.0,0.0,97,0.00,,CLR,0.00,VWS V14.01,2013-09-15 03:50:00,
2013-09-14 23:55:00,45.1,44.3,30.14,SE,138,0.0,0.0,97,0.00,,CLR,0.00,VWS V14.01,2013-09-15 03:55:00,